Location: Table Mountain
(47.2500°N, 120.5778°W)
Time: 19:10:17
(UTC-07:00)

Tiangong 2 - Pass Details

Date: 08 October 2017
Orbit: 388 x 392 km, 42.8° (Epoch: 17 October)

Event Time Altitude Azimuth Distance (km) Brightness Sun altitude
Exits shadow 05:55:28 - 198° (SSW) 1,784 4.2 -13.7°
Reaches altitude 10° 05:56:58 10° 179° (S) 1,413 3.9 -13.4°
Maximum altitude 05:58:24 13° 152° (SSE) 1,276 4.0 -13.2°
Drops below altitude 10° 05:59:51 10° 125° (SE) 1,417 4.7 -12.9°
Sets 06:02:50 0° 95° (E) 2,277 6.9 -12.4°
